Timeline UpdatesTrip UpdatesNews PostsPvt Posts♥♥Travel TipsAdmin PostsConv PostsFollowed PostsChat RequestsBlog PostsPNR Posts

Disclaimer
Search
 
 
Thu Dec 18, 2014 14:05:03 ISTHomeTrainsΣChainsAtlasPNRForumGalleryNewsFAQTripsMembersLoginFeedback
No Recent News for this Train
Other Trains in the News **new
Latest...
.
Sat Feb 02, 2013 (04:10PM)
⇐ Return Journey: Train# 51187

51188/Katni - Bhusaval Passenger (UnReserved)

Time-Table HAS CHANGED.
Sep 05 2014 (2:13PM)
Change Departure Station:
Change Arrival Station:
Post a Train Travel TipPost a Train Travel Tip **new
Post a Comment/Question/Picture/VideoPost a Comment/Question/Picture/Video
Pantry/Catering
✕ NO Pantry Car
✕ NO Catering
RSA - Rake Sharing
Rake/Coach Composition
Loco
KTE-ET: KTE/ET WDM-3A ET-BSL: BSL/ET WAP-4
News    PNR    Forum    Time-Table    Availability    Fare Chart    Map    Arr/Dep History    Trips    Gallery    ΣChains    X/O    Timeline    
Travel Time: 16h 14m    64 halts    Distance: 569 km    Avg Speed: 35 km/hr
Type: Passenger
Zone: CR/Central
Departs @ 22:20 (Avg 57m late)
Platform# 5
SMTWTFS
Katni Junction/KTE 
Arrives @ 14:34 +1 night (Avg 3h 47m late)
Platform# ???
SMTWTFS
Chandni/CDI 

64 halts. 70 intermediate Stations between Katni Junction and Chandni

Show ALL intermediate Stations  Show Old Time-Table

#TrkCodeStation NameX/OArrivesAvgDepartsAvgHaltPFDay#KmSpeedElevZoneAddress
1%==|KTEKatni Junction (6)»  -22:20+57510.032387mWCRKatni, Madhya Pradesh
2|==|MDRRMadhavnagar Road (2)  22:30-22:31-1m--15.347398mWCRMadhavnagar, Madhya Pradesh
3|==|NWRNiwar (2)X  22:41+1:3222:42+1:371m--113.252412mWCRPipraundh, Madhya Pradesh
4|==|SNRRSansarpur (2)X  22:51-22:52-1m--120.959436mWCRNational Highway 7, Madhya Pradesh
5|==|SBDSleemanabad Road (2)  22:59+4823:00+481m--127.857434mWCRSleemanabad, Madhya Pradesh
6|==|DDCEDundi (2)  23:10+1:3423:11+1:391m--137.360415mWCRDundi, Madhya Pradesh
7|==|SHRSihora Road (2)X  23:26+1:2923:28+1:352m--152.361388mWCRJabalpur, Madhya Pradesh
8|==|GSPRGosalpur (2)XO  23:39+1:4423:40+1:501m--163.457396mWCRJabalpur, Madhya Pradesh
9|==|DOEDeori (2)  23:51+1:3923:52+1:411m--173.948392mWCRJabalpur, Madhya Pradesh
10|==|ADTLAdhartal (2)  00:03+1:5400:04+1:581m--282.782393mWCRJabalpur, Madhya Pradesh
11|==|JBPJabalpur Junction (4)X  00:20 00:10+4100:30 00:20+5310m1290.914416mWCRJabalpur, Madhya Pradesh
12|==|MMLMadan Mahal (3)  00:34+1:5400:36+1:552m1294.256428mWCRJabalpur, Madhya Pradesh
13|==|BRGTBheraghat (2)  00:50+2:3900:51+2:451m--2107.352389mWCRBheraghat, Madhya Pradesh
14|==|BHTNBhitoni (2)X  01:04 01:06+2:4101:05 01:08+2:481 2m--2120.469380mWCRJabalpur, Madhya Pradesh
15|==|BMRBikrampur (2)  01:17 01:18+2:3601:18 01:20+2:381 2m--2132.059376mWCRBikrampur Dist Narsingpur., Madhya Pradesh
16|==|SRIDShridham (3)X  01:29 01:32+1:4601:31 01:34+1:492m32143.766373mWCRShridham, Madhya Pradesh
17|==!KKBKarak Bel (2)  01:48+2:5401:49+2:551m--2159.229375mWCRKarak Bel, Madhya Pradesh
18|==!BELDBelkhera (2)  01:58+2:5101:59+2:531m--2163.633367mWCRState Highway 22, Madhya Pradesh
19!==|GPCGhatpindrai (2)  02:09+2:5202:10+2:541m--2169.135366mWCRGhatpindra, Madhya Pradesh
20|==|NUNarsinghpur (2)X  02:20+2:2702:22+2:392m22174.968365mWCRNarsimhapur, Madhya Pradesh
21|==|KYKareli (2)X  02:36+2:5802:37+3:011m22190.747365mWCRKareli, Madhya Pradesh
22|==|KFYKarapgaon (2)X  02:48-02:49-1m--2199.347363mWCRNational Highway 26, Madhya Pradesh
23|==|BNEBohani (2)XO  02:58+3:0402:59+3:111m--2206.378361mWCRNarsinghpur, Madhya Pradesh
24|==|GARGadarwara (2)XO  03:09+3:1303:10+3:201m22219.256353mWCRNarsinghpur, Madhya Pradesh
25|==|SCKRSalichauka Road (2)X  03:25+3:1803:26+3:261m--2233.161355mWCRGadarwara, Madhya Pradesh
26|==|JHTJunehta (2)  03:36-03:37-1m--2243.351353mWCRState Highway 22, Madhya Pradesh
27|==|BKHBankhedi (2)X  03:44+3:2503:46+3:342m--2249.269351mWCRBankheri, Madhya Pradesh
28|==|PPIPipariya (3)X  04:03+2:5604:05+3:082m32268.640339mWCRPiparia, Madhya Pradesh
29|==|SXFSobhapur (2)O  04:18-04:19-1m--2277.245338mWCRState Highway 22, Madhya Pradesh
30|==|SGPSohagpur (2)X  04:31+3:3804:33+3:392m--2286.343340mWCRSohagpur, Madhya Pradesh
31|==|GMDGuramkhedi (2)  04:47+3:3404:48+3:461m--2296.449337mWCRGuramkhedi, Madhya Pradesh
32|=-|BGTABagratawa (2)  05:04+3:4205:05+4:041m--2309.429338mWCRBagra Tawa, Madhya Pradesh
33|-=|SQLSontalai (2)X  05:19+4:0105:20+4:041m--2316.327329mWCRItarsi, Madhya Pradesh
34|==|GROGurra (2)X  05:40+3:5405:41+3:561m--2325.316327mWCRItarsi, Madhya Pradesh
35|==|ETItarsi Junction (7)  06:20+2:0606:45+2:0725m--2335.857329mWCRItarsi 461111, Madhya Pradesh
36/==/DRADularia (2)  06:58+3:5606:59+4:011m--2348.142318mWCRItarsi, Madhya Pradesh
37/==/KTZKhutwansa (2)X  07:07-07:08-1m--2353.755325mWCRSH 15, Madhya Pradesh
38/==/DKIDharamkundi (2)O  07:17 07:16+3:4907:18+3:491 2m--2361.131314mWCRSH 15, Madhya Pradesh
39/==/BPFBanapura (2)  07:34+3:4107:35+3:421m--2369.349314mWCRBanapura, Madhya Pradesh
40/==/BIFBhaironpur (2)O  07:44+3:4107:45+3:421m--2376.649322mWCRSH 15, Madhya Pradesh
41/==/PGLPagdhal (2)X  07:54+3:3907:55+3:431m--2383.941317mWCRPagdhal, Madhya Pradesh
42/==/CGOChhidgaon (2)X  08:01-08:02-1m--2388.026309mWCRHarda, Madhya Pradesh
43/==/TBNTimarni (2)  08:24+3:2808:25+3:291m--2397.547308mWCRTimarni, Madhya Pradesh
44/==/CRKCharkhera (2)XO  08:34+3:2708:35+3:381m--2404.623298mWCRBarkalan, Madhya Pradesh
45/==/HDHarda (3)X  08:53+3:0908:55+3:412m--2411.674289mWCRHarda, Madhya Pradesh
46/==/PALPalasner (2)  09:02 09:01+3:5809:03+3:581 2m--2419.044296mWCRHarda, Madhya Pradesh
47/==/MUOMasangaon (2)XO  09:12 09:11+3:5509:13+3:551 2m--2425.012303mWCRSH 15, Madhya Pradesh
48/==/BRIBhiringi (2)  09:39 09:38+3:3909:40+3:431 2m--2430.1133294mWCRSH 15, Madhya Pradesh
49/==/KROKurawan (2)X  09:44 09:43-09:45-1 2m--2436.829297mWCRSH 15, Madhya Pradesh
50/==/KKNKhirkiya (2)O  09:58+3:2310:00+3:232m12443.241281mWCRSH 15, Madhya Pradesh
51/==/DRHIDagarhkeri (2)XO  10:17 10:16+3:3410:18+3:381 2m--2454.121274mWCRState Highway 15, Madhya Pradesh
52/==/BRUDBarud (2)X  10:47 10:46+3:1810:48+3:221 2m--2463.776273mWCRKhandwa, Madhya Pradesh
53/==/CAERChhanera (2)XO  10:56+3:2310:58+3:312m--2473.923283mWCRChhanera, Madhya Pradesh
54/==/CKKDCharkheda Khurd (2)  11:17 11:16+3:2211:18+3:221 2m--2480.624274mWCRKhandwa, Madhya Pradesh
55/==/SGBJSurgaon Banjari (2)  11:47 11:46+3:0411:48+3:211 2m--2491.871298mWCRKhandwa, Madhya Pradesh
56/==/TLVTalvadiya (2)  11:58+3:0512:00+3:152m--2503.563308mWCRKhandwa, Madhya Pradesh
57/==/MTAMathela (2)XO  12:09 12:08+3:1612:10+3:161 2m--2511.96322mWCRKhandwa, Madhya Pradesh
58/==/KNWKhandwa Junction (5)  13:20+2:1713:30+2:1610m--2519.344310mCRKhandwa, Madhya Pradesh
59/==/BRGJBargaon Gujar (2)  13:37+3:2813:38+3:281m--2524.460316mCRKhandwa, Madhya Pradesh
60/==/BMABagmar (2)X  13:44+3:2713:45+3:351m--2530.466335mCRState Highway 27, Madhya Pradesh
61/==/KDKKohdad (2)X  13:49+3:3713:50+3:371m--2534.857344mCRState Highway 15, Madhya Pradesh
62/==/DGNDongargaon (2)  13:58+3:3713:59+3:381m12542.458373mCRBorgaon, Madhya Pradesh
63/==/SXASagphata (2)  14:07+3:3814:08+3:411m--2550.151350mCRKhandwa, Madhya Pradesh
64/==/MWAMandwa (2)X  14:15+3:4214:16+3:471m--2556.144317mCRState Highway 27, Madhya Pradesh
65/==/NPNRNepanagar (2)  14:24+4:3314:26+4:332m--2561.953289mCRState Highway 27, Madhya Pradesh
66/==/CDIChandni (2)•X  14:34+3:4714:35+3:471m--2569.077276mCRNepanagar Rd, Madhya Pradesh
67/==/AGQAsirgarh Road (2)  14:43+3:4714:44+3:471m--2579.267259mCRState Highway 27, Madhya Pradesh
68/==/BAUBurhanpur (2)X  14:52+3:3614:55+3:363m12588.162269mCRBurhanpur, Madhya Pradesh
69/==/WGAWaghodaX  15:05+3:4615:06+3:461m--2598.460259mCRChorwad, Maharashtra
70/==/RVRaver (2)X  15:16+3:1415:18+3:142m--2608.368242mCRJalgaon, Maharashtra
71/==/NBNimbhora (2)X  15:27+3:4415:28+3:441m--2618.558229mCRJalgaon, Maharashtra
72/==/SAVSavda (2)  15:37+2:5515:38+3:101m--2627.258220mCRSavda, Maharashtra
73/==/DSKDuskheda (2)X  15:47+4:0315:48+4:031m--2635.96213mCRDuskheda Station, Maharashtra
74/==/BSLBhusaval Junction (8)  17:00+2:19-62642.6-208mCRBhusaval 425201, Maharashtra
Scroll to Top
Scroll to Bottom


Go to Mobile site